Eastsound, WA
on Tuesday, January 15, 2013

Tuesday
Previous Day Next Day
Daily Summary
 ActualAverage (KBLI)Record (KBLI)
Temperature
Mean Temperature °F 39°F  
Max Temperature 39°F 46°F 58°F (1974)
Min Temperature 32°F 33°F 9°F (1950)
Degree Days
Heating Degree Days 30 26  
Month to date heating degree days 396  
Cooling Degree Days 0 0  
Month to date cooling degree days 0  
Year to date cooling degree days 0  
Moisture
Dew Point 32°F   
Average Humidity 83    
Maximum Humidity 100    
Minimum Humidity 75    
Precipitation
Precipitation 0.00 in 0.16 in 1.16 in (1976)
Month to date precipitation 2.30  
Year to date precipitation 2.30  
Wind
Wind Speed 0 mph   
Max Wind Speed 0 mph   
Max Gust Speed mph   
Visibility 10 miles   
Events     

Key: T is trace of precipitation, MM is missing value
Source: NWS Daily Summary
Time(PST)TemperatureDew PointHumidity Pressure Visibility Wind DirectionWind SpeedGust SpeedPrecipitationEvents Conditions
12:15 AM 37.4°F 32.0°F 81% 30.57 in 10.0 miles North - - N/A   Overcast
12:35 AM 35.6°F 32.0°F 87% 30.57 in 10.0 miles North - - N/A   Overcast
12:55 AM 35.6°F 32.0°F 87% 30.58 in 10.0 miles Calm Calm - N/A   Overcast
1:15 AM 35.6°F 32.0°F 87% 30.59 in 10.0 miles Calm Calm - N/A   Mostly Cloudy
1:35 AM 37.4°F 32.0°F 81% 30.60 in 10.0 miles Calm Calm - N/A   Overcast
1:55 AM 37.4°F 32.0°F 81% 30.60 in 10.0 miles Calm Calm - N/A   Overcast
2:15 AM 37.4°F 32.0°F 81% 30.60 in 10.0 miles Calm Calm - N/A   Overcast
2:55 AM 37.4°F 32.0°F 81% 30.62 in 10.0 miles Calm Calm - N/A   Overcast
3:15 AM 37.4°F 32.0°F 81% 30.62 in 10.0 miles Calm Calm - N/A   Overcast
3:35 AM 37.4°F 32.0°F 81% 30.62 in 10.0 miles Calm Calm - N/A   Overcast
3:55 AM 35.6°F 32.0°F 87% 30.62 in 10.0 miles Calm Calm - N/A   Overcast
4:15 AM 35.6°F 32.0°F 87% 30.62 in 10.0 miles Calm Calm - N/A   Overcast
4:35 AM 35.6°F 32.0°F 87% 30.62 in 10.0 miles Calm Calm - N/A   Overcast
4:55 AM 35.6°F 32.0°F 87% 30.62 in 10.0 miles Calm Calm - N/A   Overcast
5:15 AM 33.8°F 32.0°F 93% 30.62 in 10.0 miles Calm Calm - N/A   Overcast
5:35 AM 33.8°F 32.0°F 93% 30.62 in 10.0 miles Calm Calm - N/A   Overcast
5:55 AM 33.8°F 32.0°F 93% 30.62 in 10.0 miles Calm Calm - N/A   Overcast
6:15 AM 33.8°F 32.0°F 93% 30.63 in 10.0 miles Calm Calm - N/A   Overcast
6:35 AM 33.8°F 32.0°F 93% 30.64 in 10.0 miles Calm Calm - N/A   Overcast
6:55 AM 33.8°F 32.0°F 93% 30.64 in 10.0 miles Calm Calm - N/A   Overcast
7:15 AM 32.0°F 32.0°F 100% 30.65 in 10.0 miles Calm Calm - N/A   Overcast
7:35 AM 32.0°F 32.0°F 100% 30.66 in 10.0 miles Calm Calm - N/A   Overcast
8:15 AM 35.6°F 32.0°F 87% 30.66 in 10.0 miles Calm Calm - N/A   Overcast
8:35 AM 35.6°F 32.0°F 87% 30.67 in 10.0 miles Calm Calm - N/A   Overcast
8:55 AM 35.6°F 32.0°F 87% 30.67 in 10.0 miles Calm Calm - N/A   Overcast
9:15 AM 37.4°F 32.0°F 81% 30.68 in 10.0 miles Calm Calm - N/A   Overcast
9:35 AM 37.4°F 32.0°F 81% 30.69 in 10.0 miles Calm Calm - N/A   Overcast
9:55 AM 37.4°F 32.0°F 81% 30.69 in 10.0 miles Calm Calm - N/A   Overcast
10:15 AM 37.4°F 33.8°F 87% 30.69 in 10.0 miles Calm Calm - N/A   Overcast
10:35 AM 37.4°F 32.0°F 81% 30.70 in 10.0 miles Calm Calm - N/A   Overcast
10:55 AM 39.2°F 32.0°F 75% 30.70 in 10.0 miles Calm Calm - N/A   Overcast
11:15 AM 39.2°F 32.0°F 75% 30.70 in 10.0 miles Calm Calm - N/A   Overcast
11:55 AM 39.2°F 32.0°F 75% 30.69 in 10.0 miles Calm Calm - N/A   Mostly Cloudy
12:15 PM 39.2°F 32.0°F 75% 30.69 in 10.0 miles Calm Calm - N/A   Mostly Cloudy
12:35 PM 39.2°F 32.0°F 75% 30.69 in 10.0 miles Calm Calm - N/A   Overcast
12:55 PM 39.2°F 32.0°F 75% 30.68 in 10.0 miles Calm Calm - N/A   Overcast
1:15 PM 39.2°F 32.0°F 75% 30.68 in 10.0 miles Calm Calm - N/A   Overcast
1:35 PM 39.2°F 32.0°F 75% 30.68 in 10.0 miles Calm Calm - N/A   Mostly Cloudy
1:55 PM 39.2°F 32.0°F 75% 30.68 in 10.0 miles Calm Calm - N/A   Mostly Cloudy
2:15 PM 39.2°F 32.0°F 75% 30.68 in 10.0 miles Calm Calm - N/A   Overcast
2:35 PM 39.2°F 32.0°F 75% 30.68 in 10.0 miles Calm Calm - N/A   Overcast
2:55 PM 39.2°F 32.0°F 75% 30.69 in 10.0 miles Calm Calm - N/A   Overcast
3:15 PM 39.2°F 32.0°F 75% 30.69 in 10.0 miles Calm Calm - N/A   Overcast
3:35 PM 39.2°F 32.0°F 75% 30.69 in 10.0 miles Calm Calm - N/A   Overcast
3:55 PM 39.2°F 32.0°F 75% 30.68 in 10.0 miles Calm Calm - N/A   Overcast
4:15 PM 39.2°F 32.0°F 75% 30.68 in 10.0 miles Calm Calm - N/A   Overcast
4:35 PM 39.2°F 32.0°F 75% 30.68 in 10.0 miles Calm Calm - N/A   Overcast
4:55 PM 39.2°F 32.0°F 75% 30.69 in 10.0 miles Calm Calm - N/A   Overcast
5:15 PM 37.4°F 32.0°F 81% 30.69 in 10.0 miles Calm Calm - N/A   Overcast
5:35 PM 37.4°F 32.0°F 81% 30.68 in 10.0 miles Calm Calm - N/A   Overcast
5:55 PM 37.4°F 32.0°F 81% 30.68 in 10.0 miles Calm Calm - N/A   Overcast
6:15 PM 37.4°F 32.0°F 81% 30.68 in 10.0 miles Calm Calm - N/A   Overcast
6:35 PM 37.4°F 32.0°F 81% 30.68 in 10.0 miles Calm Calm - N/A   Overcast
6:55 PM 37.4°F 32.0°F 81% 30.68 in 10.0 miles Calm Calm - N/A   Overcast
7:15 PM 37.4°F 32.0°F 81% 30.68 in 10.0 miles Calm Calm - N/A   Overcast
7:35 PM 37.4°F 32.0°F 81% 30.68 in 10.0 miles Calm Calm - N/A   Overcast
7:55 PM 37.4°F 32.0°F 81% 30.68 in 10.0 miles Calm Calm - N/A   Overcast
8:15 PM 37.4°F 32.0°F 81% 30.68 in 10.0 miles Calm Calm - N/A   Overcast
8:35 PM 35.6°F 32.0°F 87% 30.68 in 10.0 miles Calm Calm - N/A   Overcast
8:55 PM 37.4°F 33.8°F 87% 30.68 in 10.0 miles Calm Calm - N/A   Overcast
9:15 PM 37.4°F 33.8°F 87% 30.67 in 10.0 miles Calm Calm - N/A   Overcast
9:35 PM 37.4°F 33.8°F 87% 30.67 in 10.0 miles Calm Calm - N/A   Overcast
9:55 PM 37.4°F 33.8°F 87% 30.67 in 10.0 miles Calm Calm - N/A   Overcast
10:15 PM 37.4°F 33.8°F 87% 30.67 in 10.0 miles Calm Calm - N/A   Overcast
10:55 PM 37.4°F 33.8°F 87% 30.67 in 10.0 miles Calm Calm - N/A   Overcast
11:15 PM 37.4°F 33.8°F 87% 30.67 in 10.0 miles Calm Calm - N/A   Overcast
11:35 PM 37.4°F 33.8°F 87% 30.67 in 10.0 miles Calm Calm - N/A   Overcast
Moon Phase
Jan. 15 Jan. 18 Jan. 26 Feb. 03 Feb. 10
Sunrise:07:58 AM (PST) Moon Rise:09:41 AM (PST)1/15
Sunset:04:43 PM (PST) Moon Set:10:08 PM (PST)1/15

Copyright © 2014 The Weather Underground, Inc.